Weather History for Peoria, IL

Change the Weather History Date:

Friday, October 12, 2012

  Actual Average Record
Temperature  
Mean Temperature 50 °F 55 °F  
Max Temperature 59 °F 66 °F 86 °F (1890)
Min Temperature 41 °F 45 °F 25 °F (1987)
Degree Days  
Heating Degree Days 15 10  
Month to date heating degree days 169 104  
Since 1 July heating degree days 273 194  
Cooling Degree Days 0 1  
Month to date cooling degree days 0 12  
Year to date cooling degree days 1368 1036  
Moisture  
Dew Point 32 °F    
Average Humidity 52    
Maximum Humidity 70    
Minimum Humidity 33    
Precipitation  
Precipitation 0.00 in 0.09 in 1.52 in (1973)
Month to date precipitation 0.56 1.05  
Year to date precipitation 20.76 29.15  
Snow  
Snow 0.00 in 0.00 in T in (1909)
Month to date snowfall 0.0 0.0  
Since 1 July snowfall 0.0 0.0  
Since 1 September snowfall 0.0 0.0  
Snow Depth 0.00 in    
Sea Level Pressure  
Sea Level Pressure 30.33 in    
Wind  
Wind Speed 8 mph (East)    
Max Wind Speed 17 mph    
Max Gust Speed 25 mph    
Visibility 10 miles    
Events      
T = Trace of Precipitation, MM = Missing Value Source: NWS Daily Summary

Daily Weather History Graph

Daily Weather History Graph

Search for Another Location

Airport:

Trip Planner

Search our weather history database for the weather conditions in past years. The results will help you decide how hot, cold, wet, or windy it might be!

Date:

Astronomy

Oct. 12, 2012 Rise Set
Actual Time 7:07 AM CDT 6:22 PM CDT
Civil Twilight 6:39 AM CDT 6:49 PM CDT
Nautical Twilight 6:07 AM CDT 7:21 PM CDT
Astronomical Twilight 5:36 AM CDT 7:53 PM CDT
Moon 3:49 AM CDT (10/12) 4:32 PM CDT (10/12)
Length of Visible Light 12h 10m
Length of Day
11h 15m
Waning Crescent, 10% of the Moon is Illuminated
Oct 12
Waning Crescent
Oct 15
New
Oct 21
First Quarter
Oct 29
Full
Nov 6
Last Quarter

Hourly Weather History & Observations

Time (CDT) Temp. Windchill Dew Point Humidity Pressure Visibility Wind Dir Wind Speed Gust Speed Precip Events Conditions
12:54 AM 48.9 °F - 37.0 °F 64% 30.27 in 10.0 mi NNE 9.2 mph 20.7 mph N/A   Clear
1:54 AM 46.9 °F - 34.0 °F 61% 30.29 in 10.0 mi NNE 10.4 mph - N/A   Clear
2:54 AM 48.2 °F - 33.8 °F 58% 30.30 in 10.0 mi NNE 9.2 mph - N/A   Overcast
3:54 AM 46.0 °F 42.5 °F 34.0 °F 63% 30.31 in 10.0 mi NNE 6.9 mph - N/A   Mostly Cloudy
4:54 AM 44.1 °F 40.8 °F 36.0 °F 73% 30.33 in 10.0 mi NNE 5.8 mph - N/A   Clear
5:54 AM 43.0 °F 37.7 °F 32.0 °F 65% 30.35 in 10.0 mi NNE 9.2 mph - N/A   Clear
6:54 AM 42.1 °F 35.2 °F 28.0 °F 58% 30.37 in 10.0 mi NE 12.7 mph 21.9 mph N/A   Scattered Clouds
7:54 AM 42.1 °F 35.7 °F 27.0 °F 55% 30.40 in 10.0 mi NE 11.5 mph - N/A   Clear
8:54 AM 44.6 °F 40.2 °F 28.4 °F 53% 30.42 in 10.0 mi ENE 8.1 mph - N/A   Clear
9:54 AM 48.0 °F - 30.9 °F 52% 30.43 in 10.0 mi NE 8.1 mph - N/A   Clear
10:54 AM 50.0 °F - 33.1 °F 52% 30.43 in 10.0 mi ENE 16.1 mph 21.9 mph N/A   Clear
11:54 AM 53.6 °F - 35.6 °F 51% 30.42 in 10.0 mi East 10.4 mph 16.1 mph N/A   Clear
12:54 PM 55.0 °F - 33.1 °F 43% 30.41 in 10.0 mi SE 6.9 mph - N/A   Clear
1:54 PM 57.0 °F - 34.0 °F 42% 30.37 in 10.0 mi ESE 8.1 mph - N/A   Clear
2:54 PM 59.0 °F - 32.0 °F 36% 30.35 in 10.0 mi ESE 8.1 mph - N/A   Clear
3:54 PM 59.0 °F - 30.9 °F 35% 30.33 in 10.0 mi ESE 9.2 mph - N/A   Clear
4:54 PM 57.2 °F - 30.2 °F 36% 30.31 in 10.0 mi ESE 6.9 mph - N/A   Clear
5:54 PM 57.0 °F - 30.9 °F 37% 30.30 in 10.0 mi ESE 4.6 mph - N/A   Clear
6:54 PM 53.1 °F - 32.0 °F 45% 30.29 in 10.0 mi East 4.6 mph - N/A   Clear
7:54 PM 51.1 °F - 32.0 °F 48% 30.27 in 10.0 mi East 6.9 mph - N/A   Clear
8:54 PM 50.0 °F - 33.8 °F 54% 30.25 in 10.0 mi East 5.8 mph - N/A   Clear
9:54 PM 51.1 °F - 32.0 °F 48% 30.27 in 10.0 mi SE 5.8 mph - N/A   Clear
10:54 PM 51.1 °F - 33.1 °F 50% 30.25 in 10.0 mi ESE 6.9 mph - N/A   Clear
11:54 PM 51.1 °F - 36.0 °F 56% 30.24 in 10.0 mi SE 6.9 mph 18.4 mph N/A   Partly Cloudy